H1 CPF 2 NER 2021 6 8 9 159 01 glonass142 H2 2001801 9142 45358 2021 6 8 0 0 0 2021 6 11 23 45 0 900 1 1 0 0 0 1 H9 10 0 59373 0.00000 0 -15729181.993 13587371.488 14804475.687 10 0 59373 900.00000 0 -14706546.807 11901066.106 17125715.856 10 0 59373 1800.00000 0 -13703762.573 9901679.065 19114739.135 10 0 59373 2700.00000 0 -12774770.094 7625611.134 20732982.523 10 0 59373 3600.00000 0 -11966888.353 5120092.678 21949067.959 10 0 59373 4500.00000 0 -11318789.338 2441468.918 22739406.321 10 0 59373 5400.00000 0 -10858853.719 -346892.188 23088651.934 10 0 59373 6300.00000 0 -10603976.056 -3176983.942 22989999.248 10 0 59373 7200.00000 0 -10558869.288 -5978738.998 22445316.214 10 0 59373 8100.00000 0 -10715897.534 -8682695.885 21465111.763 10 0 59373 9000.00000 0 -11055444.294 -11222644.621 20068337.721 10 0 59373 9900.00000 0 -11546800.887 -13538142.540 18282028.450 10 0 59373 10800.00000 0 -12149538.235 -15576796.836 16140784.434 10 0 59373 11700.00000 0 -12815304.825 -17296219.582 13686108.872 10 0 59373 12600.00000 0 -13489975.699 -18665574.228 10965609.334 10 0 59373 13500.00000 0 -14116062.249 -19666649.431 8032079.126 10 0 59373 14400.00000 0 -14635281.375 -20294415.539 4942475.560 10 0 59373 15300.00000 0 -14991175.380 -20557040.539 1756814.714 10 0 59373 16200.00000 0 -15131671.501 -20475365.006 -1462995.899 10 0 59373 17100.00000 0 -15011472.103 -20081858.360 -4654363.856 10 0 59373 18000.00000 0 -14594173.515 -19419100.687 -7755233.457 10 0 59373 18900.00000 0 -13854022.710 -18537854.597 -10705298.087 10 0 59373 19800.00000 0 -12777236.266 -17494808.982 -13447178.991 10 0 59373 20700.00000 0 -11362824.620 -16350090.482 -15927546.700 10 0 59373 21600.00000 0 -9622885.486 -15164648.299 -18098162.773 10 0 59373 22500.00000 0 -7582352.820 -13997623.213 -19916821.133 10 0 59373 23400.00000 0 -5278210.818 -12903812.175 -21348170.459 10 0 59373 24300.00000 0 -2758204.872 -11931335.571 -22364401.668 10 0 59373 25200.00000 0 -79102.570 -11119605.421 -22945787.336 10 0 59373 26100.00000 0 2695423.270 -10497679.870 -23081062.829 10 0 59373 27000.00000 0 5497201.877 -10083072.824 -22767642.186 10 0 59373 27900.00000 0 8256162.460 -9881068.236 -22011664.877 10 0 59373 28800.00000 0 10903015.073 -9884567.254 -20827872.867 10 0 59373 29700.00000 0 13371903.519 -10074473.956 -19239320.597 10 0 59373 30600.00000 0 15602920.497 -10420602.686 -17276923.617 10 0 59373 31500.00000 0 17544380.910 -10883068.152 -14978854.743 10 0 59373 32400.00000 0 19154759.463 -11414099.032 -12389799.438 10 0 59373 33300.00000 0 20404212.628 -11960198.097 -9560084.887 10 0 59373 34200.00000 0 21275622.357 -12464557.192 -6544699.784 10 0 59373 35100.00000 0 21765119.043 -12869624.674 -3402223.939 10 0 59373 36000.00000 0 21882062.968 -13119716.495 -193688.687 10 0 59373 36900.00000 0 21648486.188 -13163560.249 3018609.475 10 0 59373 37800.00000 0 21098019.450 -12956664.393 6172318.744 10 0 59373 38700.00000 0 20274350.269 -12463412.231 9206241.646 10 0 59373 39600.00000 0 19229277.873 -11658791.957 12061520.761 10 0 59373 40500.00000 0 18020447.485 -10529689.403 14682777.529 10 0 59373 41400.00000 0 16708859.588 -9075688.528 17019182.267 10 0 59373 42300.00000 0 15356259.010 -7309345.415 19025434.891 10 0 59373 43200.00000 0 14022513.333 -5255923.456 20662637.924 10 0 59373 44100.00000 0 12763090.266 -2952599.824 21899045.515 10 0 59373 45000.00000 0 11626739.237 -447175.289 22710674.565 10 0 59373 45900.00000 0 10653473.667 2203660.103 23081766.843 10 0 59373 46800.00000 0 9872937.765 4936434.729 23005093.579 10 0 59373 47700.00000 0 9303225.576 7683290.186 22482096.948 10 0 59373 48600.00000 0 8950201.235 10374565.129 21522865.698 10 0 59373 49500.00000 0 8807348.549 12941462.231 20145945.119 10 0 59373 50400.00000 0 8856156.056 15318688.556 18377984.489 10 0 59373 51300.00000 0 9067021.446 17446960.616 16253228.073 10 0 59373 52200.00000 0 9400637.461 19275270.650 13812858.634 10 0 59373 53100.00000 0 9809801.217 20762820.086 11104205.326 10 0 59373 54000.00000 0 10241570.879 21880539.833 8179830.536 10 0 59373 54900.00000 0 10639678.780 22612133.922 5096512.731 10 0 59373 55800.00000 0 10947098.935 22954602.736 1914144.818 10 0 59373 56700.00000 0 11108660.030 22918223.866 -1305430.673 10 0 59373 57600.00000 0 11073592.691 22525991.379 -4499626.718 10 0 59373 58500.00000 0 10797902.347 21812537.178 -7606333.237 10 0 59373 59400.00000 0 10246466.159 20822580.074 -10565130.432 10 0 59373 60300.00000 0 9394764.021 19608968.265 -13318469.746 10 0 59373 61200.00000 0 8230169.153 18230398.161 -15812798.630 10 0 59373 62100.00000 0 6752742.411 16748906.147 -17999606.668 10 0 59373 63000.00000 0 4975495.439 15227239.437 -19836372.317 10 0 59373 63900.00000 0 2924110.437 13726217.080 -21287391.527 10 0 59373 64800.00000 0 636127.101 12302192.374 -22324472.185 10 0 59373 65700.00000 0 -1840370.205 11004723.391 -22927481.055 10 0 59373 66600.00000 0 -4448510.905 9874549.275 -23084732.856 10 0 59373 67500.00000 0 -7124769.670 8941956.856 -22793214.316 10 0 59373 68400.00000 0 -9801382.619 8225605.440 -22058639.231 10 0 59373 69300.00000 0 -12408948.091 7731858.313 -20895333.770 10 0 59373 70200.00000 0 -14879104.253 7454648.014 -19325954.499 10 0 59373 71100.00000 0 -17147172.574 7375880.017 -17381044.727 10 0 59373 72000.00000 0 -19154657.535 7466356.794 -15098437.878 10 0 59373 72900.00000 0 -20851499.007 7687182.363 -12522519.475 10 0 59373 73800.00000 0 -22197983.999 7991587.214 -9703362.045 10 0 59373 74700.00000 0 -23166238.593 8327095.831 -6695749.861 10 0 59373 75600.00000 0 -23741238.542 8637944.591 -3558112.528 10 0 59373 76500.00000 0 -23921297.097 8867647.265 -351388.284 10 0 59373 77400.00000 0 -23718010.517 8961599.212 2862160.585 10 0 59373 78300.00000 0 -23155664.527 8869609.702 6020156.988 10 0 59373 79200.00000 0 -22270127.532 8548254.956 9061319.221 10 0 59373 80100.00000 0 -21107277.849 7962952.131 11926648.394 10 0 59373 81000.00000 0 -19721031.682 7089666.329 14560570.066 10 0 59373 81900.00000 0 -18171055.021 5916178.173 16912008.117 10 0 59373 82800.00000 0 -16520255.686 4442858.070 18935370.313 10 0 59373 83700.00000 0 -14832160.581 2682913.878 20591427.006 10 0 59373 84600.00000 0 -13168287.664 662100.654 21848066.596 10 0 59373 85500.00000 0 -11585622.121 -1582096.414 22680913.743 10 0 59374 0.00000 0 -10134301.531 -4001773.040 23073799.028 10 0 59374 900.00000 0 -8855606.145 -6540357.877 23019071.459 10 0 59374 1800.00000 0 -7780336.769 -9134733.307 22517748.056 10 0 59374 2700.00000 0 -6927648.639 -11717639.219 21579497.612 10 0 59374 3600.00000 0 -6304387.666 -14220260.591 20222458.737 10 0 59374 4500.00000 0 -5904957.643 -16574892.684 18472895.099 10 0 59374 5400.00000 0 -5711722.997 -18717574.036 16364693.865 10 0 59374 6300.00000 0 -5695930.138 -20590578.424 13938716.114 10 0 59374 7200.00000 0 -5819108.606 -22144662.304 11242011.011 10 0 59374 8100.00000 0 -6034892.945 -23340974.171 8326908.146 10 0 59374 9000.00000 0 -6291188.398 -24152546.010 5250004.991 10 0 59374 9900.00000 0 -6532588.792 -24565304.116 2071068.890 10 0 59374 10800.00000 0 -6702943.991 -24578556.662 -1148125.211 10 0 59374 11700.00000 0 -6747967.683 -24204937.279 -4344998.495 10 0 59374 12600.00000 0 -6617774.308 -23469806.770 -7457389.484 10 0 59374 13500.00000 0 -6269236.645 -22410138.096 -10424768.342 10 0 59374 14400.00000 0 -5668063.096 -21072931.637 -13189419.961 10 0 59374 15300.00000 0 -4790505.503 -19513227.642 -15697571.971 10 0 59374 16200.00000 0 -3624623.983 -17791799.853 -17900445.178 10 0 59374 17100.00000 0 -2171054.048 -15972627.656 -19755205.564 10 0 59374 18000.00000 0 -443242.461 -14120253.351 -21225799.033 10 0 59374 18900.00000 0 1532859.313 -12297135.754 -22283652.714 10 0 59374 19800.00000 0 3719632.288 -10561111.178 -22908229.344 10 0 59374 20700.00000 0 6069123.596 -8963068.123 -23087424.245 10 0 59374 21600.00000 0 8524821.638 -7544932.651 -22817797.565 10 0 59374 22500.00000 0 11023799.358 -6338048.114 -22104637.644 10 0 59374 23400.00000 0 13499136.715 -5362016.254 -20961854.584 10 0 59374 24300.00000 0 15882521.886 -4624047.082 -19411706.350 10 0 59374 25200.00000 0 18106923.253 -4118843.540 -17484362.825 10 0 59374 26100.00000 0 20109221.077 -3829024.517 -15217316.398 10 0 59374 27000.00000 0 21832689.562 -3726067.098 -12654650.537 10 0 59374 27900.00000 0 23229226.126 -3771727.145 -9846180.537 10 0 59374 28800.00000 0 24261235.140 -3919877.202 -6846483.238 10 0 59374 29700.00000 0 24903087.939 -4118683.201 -3713834.656 10 0 59374 30600.00000 0 25142098.571 -4313027.108 -509076.275 10 0 59374 31500.00000 0 24978975.017 -4447072.503 2705567.626 10 0 59374 32400.00000 0 24427727.693 -4466863.946 5867698.457 10 0 59374 33300.00000 0 23515039.736 -4322849.800 8915953.935 10 0 59374 34200.00000 0 22279126.118 -3972221.458 11791197.089 10 0 59374 35100.00000 0 20768130.017 -3380969.798 14437660.615 10 0 59374 36000.00000 0 19038123.991 -2525571.690 16804024.563 10 0 59374 36900.00000 0 17150799.926 -1394235.040 18844406.693 10 0 59374 37800.00000 0 15170944.383 12350.610 20519246.863 10 0 59374 38700.00000 0 13163804.583 1680790.257 21796068.950 10 0 59374 39600.00000 0 11192454.606 3585296.674 22650106.136 10 0 59374 40500.00000 0 9315271.000 5688528.812 23064778.140 10 0 59374 41400.00000 0 7583622.216 7942921.686 23032011.642 10 0 59374 42300.00000 0 6039867.372 10292453.681 22552397.964 10 0 59374 43200.00000 0 4715746.803 12674779.135 21635185.027 10 0 59374 44100.00000 0 3631230.693 15023638.891 20298103.455 10 0 59374 45000.00000 0 2793873.123 17271449.653 18567029.670 10 0 59374 45900.00000 0 2198697.881 19351965.483 16475491.817 10 0 59374 46800.00000 0 1828620.326 21202901.301 14064027.133 10 0 59374 47700.00000 0 1655387.242 22768409.427 11379402.444 10 0 59374 48600.00000 0 1640994.878 24001305.900 8473712.027 10 0 59374 49500.00000 0 1739525.146 24864953.388 5403369.732 10 0 59374 50400.00000 0 1899322.224 25334721.421 2228014.619 10 0 59374 51300.00000 0 2065417.143 25398962.290 -990648.722 10 0 59374 52200.00000 0 2182097.209 25059461.071 -4190052.438 10 0 59374 53100.00000 0 2195510.754 24331340.391 -7307986.321 10 0 59374 54000.00000 0 2056195.938 23242423.551 -10283813.023 10 0 59374 54900.00000 0 1721425.451 21832082.562 -13059653.198 10 0 59374 55800.00000 0 1157266.692 20149619.478 -15581516.745 10 0 59374 56700.00000 0 340269.023 18252249.166 -17800357.519 10 0 59374 57600.00000 0 -741294.410 16202768.391 -19673030.613 10 0 59374 58500.00000 0 -2086683.904 14067009.333 -21163133.232 10 0 59374 59400.00000 0 -3682481.868 11911184.435 -22241712.856 10 0 59374 60300.00000 0 -5502922.927 9799233.846 -22887829.074 10 0 59374 61200.00000 0 -7510752.497 7790286.380 -23088958.422 10 0 59374 62100.00000 0 -9658578.685 5936339.788 -22841234.770 10 0 59374 63000.00000 0 -11890661.709 4280256.637 -22149520.952 10 0 59374 63900.00000 0 -14145066.544 2854158.765 -21027310.566 10 0 59374 64800.00000 0 -16356089.434 1678286.250 -19496462.129 10 0 59374 65700.00000 0 -18456857.368 760367.321 -17586770.862 10 0 59374 66600.00000 0 -20381992.252 95524.190 -15335386.539 10 0 59374 67500.00000 0 -22070228.829 -333282.800 -12786088.709 10 0 59374 68400.00000 0 -23466877.219 -554292.850 -9988433.359 10 0 59374 69300.00000 0 -24526027.303 -605506.116 -6996787.675 10 0 59374 70200.00000 0 -25212402.996 -532830.766 -3869271.748 10 0 59374 71100.00000 0 -25502789.082 -387895.022 -666627.905 10 0 59374 72000.00000 0 -25386971.125 -225617.504 2548960.068 10 0 59374 72900.00000 0 -24868149.488 -101639.370 5715074.641 10 0 59374 73800.00000 0 -23962810.512 -69727.406 8770275.565 10 0 59374 74700.00000 0 -22700060.649 -179258.311 11655290.423 10 0 59374 75600.00000 0 -21120451.846 -472890.842 14314161.669 10 0 59374 76500.00000 0 -19274347.587 -984524.434 16695328.036 10 0 59374 77400.00000 0 -17219898.105 -1737630.705 18752619.616 10 0 59374 78300.00000 0 -15020709.305 -2744028.530 20446147.854 10 0 59374 79200.00000 0 -12743302.392 -4003154.783 21743073.846 10 0 59374 80100.00000 0 -10454469.705 -5501862.043 22618240.667 10 0 59374 81000.00000 0 -8218636.199 -7214752.739 23054658.141 10 0 59374 81900.00000 0 -6095335.532 -9105036.905 23043831.191 10 0 59374 82800.00000 0 -4136904.918 -11125878.984 22585925.651 10 0 59374 83700.00000 0 -2386493.636 -13222178.871 21689768.419 10 0 59374 84600.00000 0 -876467.109 -15332714.354 20372681.672 10 0 59374 85500.00000 0 372727.797 -17392556.847 18660153.838 10 0 59375 0.00000 0 1353189.758 -19335660.831 16585353.054 10 0 59375 900.00000 0 2069656.648 -21097519.775 14188491.306 10 0 59375 1800.00000 0 2539062.914 -22617778.389 11516051.561 10 0 59375 2700.00000 0 2789578.871 -23842691.481 8619890.960 10 0 59375 3600.00000 0 2859173.833 -24727327.435 5556237.683 10 0 59375 4500.00000 0 2793763.220 -25237422.607 2384600.263 10 0 59375 5400.00000 0 2645018.750 -25350808.688 -833389.472 10 0 59375 6300.00000 0 2467934.766 -25058352.203 -4035177.183 10 0 59375 7200.00000 0 2318254.394 -24364365.912 -7158506.623 10 0 59375 8100.00000 0 2249865.393 -23286474.127 -10142635.718 10 0 59375 9000.00000 0 2312276.948 -21854937.028 -12929523.764 10 0 59375 9900.00000 0 2548285.308 -20111462.012 -15464965.813 10 0 59375 10800.00000 0 2991928.163 -18107551.796 -17699651.604 10 0 59375 11700.00000 0 3666815.357 -15902458.521 -19590128.024 10 0 59375 12600.00000 0 4584907.495 -13560829.721 -21099646.011 10 0 59375 13500.00000 0 5745794.961 -11150144.766 -22198875.492 10 0 59375 14400.00000 0 7136508.648 -8738049.026 -22866474.596 10 0 59375 15300.00000 0 8731871.168 -6389697.050 -23089502.313 10 0 59375 16200.00000 0 10495374.542 -4165215.385 -22863667.021 10 0 59375 17100.00000 0 12380548.244 -2117390.304 -22193406.388 10 0 59375 18000.00000 0 14332760.788 -289676.221 -21091797.414 10 0 59375 18900.00000 0 16291379.923 1285393.210 -19580298.664 10 0 59375 19800.00000 0 18192201.440 2587326.240 -17688329.776 10 0 59375 20700.00000 0 19970045.188 3608280.933 -15452696.567 10 0 59375 21600.00000 0 21561409.919 4353136.034 -12916872.895 10 0 59375 22500.00000 0 22907075.998 4839023.425 -10130153.222 10 0 59375 23400.00000 0 23954547.030 5094343.404 -7146692.449 10 0 59375 24300.00000 0 24660228.218 5157305.741 -4024451.740 10 0 59375 25200.00000 0 24991250.247 5074059.354 -824070.963 10 0 59375 26100.00000 0 24926862.260 4896490.678 2392310.061 10 0 59375 27000.00000 0 24459335.684 4679784.672 5562258.397 10 0 59375 27900.00000 0 23594341.120 4479852.312 8624259.292 10 0 59375 28800.00000 0 22350782.657 4350733.773 11518908.187 10 0 59375 29700.00000 0 20760096.679 4342087.485 14190060.330 10 0 59375 30600.00000 0 18865044.552 4496871.337 16585915.863 10 0 59375 31500.00000 0 16718049.645 4849314.046 18660019.575 10 0 59375 32400.00000 0 14379147.954 5423262.467 20372156.480 10 0 59375 33300.00000 0 11913637.377 6230974.667 21689126.490 10 0 59375 34200.00000 0 9389523.115 7272409.944 22585383.747 10 0 59375 35100.00000 0 6874864.703 8535046.247 23043528.942 10 0 59375 36000.00000 0 4435134.126 9994233.513 23054645.543 10 0 59375 36900.00000 0 2130693.830 11614069.163 22618473.741 10 0 59375 37800.00000 0 14498.412 13348760.357 21743418.784 10 0 59375 38700.00000 0 -1869885.604 15144417.404 20446393.321 10 0 59375 39600.00000 0 -3489860.391 16941204.573 18752496.272 10 0 59375 40500.00000 0 -4824913.004 18675759.638 16694533.780 10 0 59375 41400.00000 0 -5867221.321 20283781.916 14312390.599 10 0 59375 42300.00000 0 -6621725.062 21702681.130 11652263.299 10 0 59375 43200.00000 0 -7105659.532 22874176.481 8765769.305 10 0 59375 44100.00000 0 -7347572.189 23746736.908 5708948.412 10 0 59375 45000.00000 0 -7385863.902 24277759.708 2541175.845 10 0 59375 45900.00000 0 -7266916.912 24435395.338 -675992.146 10 0 59375 46800.00000 0 -7042889.203 24199940.811 -3880017.537 10 0 59375 47700.00000 0 -6769269.161 23564742.123 -7008600.782 10 0 59375 48600.00000 0 -6502294.821 22536566.792 -10000897.705 10 0 59375 49500.00000 0 -6296347.871 21135429.956 -12798708.678 10 0 59375 50400.00000 0 -6201433.650 19393880.626 -15347616.130 10 0 59375 51300.00000 0 -6260854.776 17355777.558 -17598047.663 10 0 59375 52200.00000 0 -6509177.779 15074605.662 -19506243.668 10 0 59375 53100.00000 0 -6970579.509 12611403.382 -21035110.272 10 0 59375 54000.00000 0 -7657643.976 10032387.588 -22154941.044 10 0 59375 54900.00000 0 -8570661.065 7406375.145 -22843993.571 10 0 59375 55800.00000 0 -9697457.279 4802108.673 -23088909.936 10 0 59375 56700.00000 0 -11013766.174 2285597.731 -22884973.341 10 0 59375 57600.00000 0 -12484123.422 -82414.272 -22236196.241 10 0 59375 58500.00000 0 -14063249.288 -2248752.511 -21155238.609 10 0 59375 59400.00000 0 -15697860.873 -4169787.528 -19663158.217 10 0 59375 60300.00000 0 -17328838.428 -5813005.151 -17788997.895 10 0 59375 61200.00000 0 -18893655.053 -7158105.292 -15569217.917 10 0 59375 62100.00000 0 -20328968.069 -8197585.296 -13046984.565 10 0 59375 63000.00000 0 -21573263.456 -8936785.045 -10271328.659 10 0 59375 63900.00000 0 -22569442.376 -9393393.534 -7296190.516 10 0 59375 64800.00000 0 -23267241.233 -9596439.314 -4179369.953 10 0 59375 65700.00000 0 -23625383.573 -9584808.768 -981401.858 10 0 59375 66600.00000 0 -23613373.398 -9405355.994 2235620.519 10 0 59375 67500.00000 0 -23212854.527 -9110685.184 5409251.518 10 0 59375 68400.00000 0 -22418478.830 -8756700.019 8477904.619 10 0 59375 69300.00000 0 -21238246.856 -8400024.270 11382045.864 10 0 59375 70200.00000 0 -19693306.462 -8095402.955 14065346.002 10 0 59375 71100.00000 0 -17817217.680 -7893194.084 16475769.158 10 0 59375 72000.00000 0 -15654714.361 -7837056.887 18566577.190 10 0 59375 72900.00000 0 -13260013.925 -7961934.057 20297230.766 10 0 59375 73800.00000 0 -10694745.153 -8292413.015 21634170.316 10 0 59375 74700.00000 0 -8025579.712 -8841535.239 22551462.357 10 0 59375 75600.00000 0 -5321665.052 -9610103.992 23031299.311 10 0 59375 76500.00000 0 -2651964.364 -10586519.973 23064343.645 10 0 59375 77400.00000 0 -82613.075 -11747152.472 22649909.968 10 0 59375 78300.00000 0 2325599.520 -13057231.400 21795981.592 10 0 59375 79200.00000 0 4519520.016 -14472223.887 20519061.036 10 0 59375 80100.00000 0 6455597.884 -15939638.910 18843856.834 10 0 59375 81000.00000 0 8101448.819 -17401185.481 16802812.042 10 0 59375 81900.00000 0 9436950.165 -18795194.921 14435482.664 10 0 59375 82800.00000 0 10454823.350 -20059206.368 11787777.243 10 0 59375 83700.00000 0 11160679.591 -21132607.448 8911071.529 10 0 59375 84600.00000 0 11572527.535 -21959219.249 5861214.728 10 0 59375 85500.00000 0 11719763.949 -22489716.639 2697446.332 10 0 59376 0.00000 0 11641690.520 -22683781.512 -518755.510 10 0 59376 900.00000 0 11385619.940 -22511897.069 -3724871.937 10 0 59376 1800.00000 0 11004651.678 -21956707.641 -6858562.814 10 0 59376 2700.00000 0 10555212.599 -21013883.687 -9858884.649 10 0 59376 3600.00000 0 10094466.847 -19692456.526 -12667481.666 10 0 59376 4500.00000 0 9677705.741 -18014606.264 -15229726.372 10 0 59376 5400.00000 0 9355828.825 -16014911.609 -17495786.812 10 0 59376 6300.00000 0 9173023.471 -13739092.125 -19421599.275 10 0 59376 7200.00000 0 9164741.803 -11242295.245 -20969727.211 10 0 59376 8100.00000 0 9356060.984 -8586999.296 -22110089.638 10 0 59376 9000.00000 0 9760496.572 -5840619.830 -22820545.031 10 0 59376 9900.00000 0 10379319.297 -3072918.969 -23087319.573 10 0 59376 10800.00000 0 11201404.340 -353325.337 -22905271.870 10 0 59376 11700.00000 0 12203619.654 2251724.220 -22277989.325 10 0 59376 12600.00000 0 13351737.147 4681311.018 -21217714.650 10 0 59376 13500.00000 0 14601828.531 6882324.648 -19745104.210 10 0 59376 14400.00000 0 15902087.306 8811422.483 -17888823.043 10 0 59376 15300.00000 0 17195000.325 10436577.998 -15684984.539 10 0 59376 16200.00000 0 18419777.734 11738154.706 -13176445.694 10 0 59376 17100.00000 0 19514939.146 12709462.355 -10411971.605 10 0 59376 18000.00000 0 20420947.215 13356773.612 -7445285.575 10 0 59376 18900.00000 0 21082777.782 13698802.202 -4334023.319 10 0 59376 19800.00000 0 21452318.340 13765665.976 -1138611.735 10 0 59376 20700.00000 0 21490493.729 13597379.951 2078905.683 10 0 59376 21600.00000 0 21169029.494 13241944.100 5256073.797 10 0 59376 22500.00000 0 20471778.516 12753107.554 8331237.537 10 0 59376 23400.00000 0 19395554.955 12187904.336 11244736.642 10 0 59376 24300.00000 0 17950440.187 11604065.146 13940060.252 10 0 59376 25200.00000 0 16159547.548 11057414.697 16364939.133 10 0 59376 26100.00000 0 14058255.288 10599364.408 18472354.577 10 0 59376 27000.00000 0 11692939.235 10274606.080 20221444.941 10 0 59376 27900.00000 0 9119257.318 10119103.481 21578292.891 10 0 59376 28800.00000 0 6400056.623 10158466.175 22516578.651 10 0 59376 29700.00000 0 3602989.078 10406773.866 23018087.309 10 0 59376 30600.00000 0 797933.714 10865900.701 23073060.826 10 0 59376 31500.00000 0 -1945668.541 11525368.146 22680388.237 10 0 59376 32400.00000 0 -4561458.160 12362733.119 21847630.438 10 0 59376 33300.00000 0 -6988669.865 13344495.778 20590878.829 10 0 59376 34200.00000 0 -9174411.682 14427489.738 18934450.092 10 0 59376 35100.00000 0 -11075616.483 15560697.283 16910422.294 10 0 59376 36000.00000 0 -12660585.617 16687414.284 14558020.437 10 0 59376 36900.00000 0 -13910060.902 17747674.553 11922862.528 10 0 59376 37800.00000 0 -14817780.764 18680832.231 9056079.961 10 0 59376 38700.00000 0 -15390497.773 19428193.725 6013328.593 10 0 59376 39600.00000 0 -15647457.161 19935588.145 2853709.390 10 0 59376 40500.00000 0 -15619358.775 20155767.421 -361380.510 10 0 59376 41400.00000 0 -15346846.628 20050534.055 -3569443.873 10 0 59376 42300.00000 0 -14878590.296 19592505.704 -6708102.758 10 0 59376 43200.00000 0 -14269039.878 18766440.981 -9716316.927 10 0 59376 44100.00000 0 -13575950.066 17570069.282 -12535576.864 10 0 59376 45000.00000 0 -12857778.794 16014388.494 -15111047.386 10 0 59376 45900.00000 0 -12171071.171 14123416.902 -17392638.969 10 0 59376 46800.00000 0 -11567940.002 11933408.714 -19335985.533 10 0 59376 47700.00000 0 -11093749.885 9491565.319 -20903309.300 10 0 59376 48600.00000 0 -10785103.133 6854295.574 -22064155.887 10 0 59376 49500.00000 0 -10668212.762 4085097.254 -22795985.508 10 0 59376 50400.00000 0 -10757731.268 1252147.741 -23084608.994 10 0 59376 51300.00000 0 -11056084.535 -1574296.101 -22924460.568 10 0 59376 52200.00000 0 -11553338.813 -4324581.063 -22318702.459 10 0 59376 53100.00000 0 -12227606.191 -6932312.532 -21279159.623 10 0 59376 54000.00000 0 -13045971.304 -9336871.493 -19826086.169 10 0 59376 54900.00000 0 -13965900.083 -11485689.658 -17987768.139 10 0 59376 55800.00000 0 -14937071.048 -13336188.896 -15799970.517 10 0 59376 56700.00000 0 -15903551.896 -14857305.313 -13305239.220 10 0 59376 57600.00000 0 -16806229.561 -16030535.653 -10552071.626 10 0 59376 58500.00000 0 -17585391.190 -16850463.642 -7593971.868 10 0 59376 59400.00000 0 -18183347.114 -17324745.746 -4488409.293 10 0 59376 60300.00000 0 -18546985.064 -17473558.421 -1295700.456 10 0 59376 61200.00000 0 -18630147.750 -17328531.482 1922163.335 10 0 59376 62100.00000 0 -18395733.377 -16931213.795 5102719.976 10 0 59376 63000.00000 0 -17817430.293 -16331136.999 8184248.433 10 0 59376 63900.00000 0 -16881012.506 -15583559.752 11106964.762 10 0 59376 64800.00000 0 -15585141.126 -14746988.197 13814179.125 10 0 59376 65700.00000 0 -13941637.657 -13880577.492 16253391.472 10 0 59376 66600.00000 0 -11975217.071 -13041524.006 18377304.917 10 0 59376 67500.00000 0 -9722691.144 -12282557.823 20144737.673 10 0 59376 68400.00000 0 -7231674.432 -11649640.784 21521416.470 10 0 59376 69300.00000 0 -4558845.912 -11179966.465 22480636.712 10 0 59376 70200.00000 0 -1767837.522 -10900345.735 23003777.222 10 0 59376 71100.00000 0 1073163.898 -10826045.348 23080660.120 10 0 59376 72000.00000 0 3894002.825 -10960128.187 22709749.148 10 0 59376 72900.00000 0 6625223.442 -11293322.855 21898182.698 10 0 59376 73800.00000 0 9200710.685 -11804428.351 20661640.640 10 0 59376 74700.00000 0 11560195.354 -12461237.295 19024047.074 10 0 59376 75600.00000 0 13651520.213 -13221939.526 17017114.058 10 0 59376 76500.00000 0 15432573.641 -14036947.719 14679734.266 10 0 59376 77400.00000 0 16872810.806 -14851068.862 12057233.522 10 0 59376 78300.00000 0 17954299.402 -15605930.605 9200496.890 10 0 59376 79200.00000 0 18672246.565 -16242560.472 6164984.575 10 0 59376 80100.00000 0 19034985.144 -16704009.073 3009656.433 10 0 59376 81000.00000 0 19063420.232 -16937906.193 -204174.165 10 0 59376 81900.00000 0 18789959.558 -16898841.109 -3414034.720 10 0 59376 82800.00000 0 18256973.216 -16550465.603 -6557512.459 10 0 59376 83700.00000 0 17514848.188 -15867229.652 -9573473.407 10 0 59376 84600.00000 0 16619720.396 -14835675.212 -12403257.236 10 0 59376 85500.00000 0 15630980.689 -13455232.171 -14991823.833 99